Year,Month,Day,Hour,Minute,Value (Times are PST for temperature in C)
2019,03,20,00,00,8.80
2019,03,20,00,01,8.80
2019,03,20,00,02,8.80
2019,03,20,00,03,8.90
2019,03,20,00,04,9.00
2019,03,20,00,05,9.10
2019,03,20,00,06,9.20
2019,03,20,00,07,9.20
2019,03,20,00,08,9.20
2019,03,20,00,09,9.30
2019,03,20,00,10,9.30
2019,03,20,00,11,9.30
2019,03,20,00,12,9.30
2019,03,20,00,13,9.30
2019,03,20,00,14,9.30
2019,03,20,00,15,9.20
2019,03,20,00,16,9.20
2019,03,20,00,17,9.20
2019,03,20,00,18,9.20
2019,03,20,00,19,9.20
2019,03,20,00,20,9.30
2019,03,20,00,21,9.30
2019,03,20,00,22,9.30
2019,03,20,00,23,9.30
2019,03,20,00,24,9.30
2019,03,20,00,25,9.30
2019,03,20,00,26,9.40
2019,03,20,00,27,9.30
2019,03,20,00,28,9.30
2019,03,20,00,29,9.30
2019,03,20,00,30,9.30
2019,03,20,00,31,9.30
2019,03,20,00,32,9.30
2019,03,20,00,33,9.30
2019,03,20,00,34,9.40
2019,03,20,00,35,9.40
2019,03,20,00,36,9.40
2019,03,20,00,37,9.40
2019,03,20,00,38,9.40
2019,03,20,00,39,9.40
2019,03,20,00,40,9.40
2019,03,20,00,41,9.40
2019,03,20,00,42,9.40
2019,03,20,00,43,9.40
2019,03,20,00,44,9.40
2019,03,20,00,45,9.30
2019,03,20,00,46,9.30
2019,03,20,00,47,9.30
2019,03,20,00,48,9.30
2019,03,20,00,49,9.30
2019,03,20,00,50,9.30
2019,03,20,00,51,9.30
2019,03,20,00,52,9.30
2019,03,20,00,53,9.40
2019,03,20,00,54,9.40
2019,03,20,00,55,9.40
2019,03,20,00,56,9.40
2019,03,20,00,57,9.40
2019,03,20,00,58,9.40
2019,03,20,00,59,9.40
2019,03,20,01,00,9.40
2019,03,20,01,01,9.30
2019,03,20,01,02,9.30
2019,03,20,01,03,9.30
2019,03,20,01,04,9.30
2019,03,20,01,05,9.30
2019,03,20,01,06,9.40
2019,03,20,01,07,9.40
2019,03,20,01,08,9.50
2019,03,20,01,09,9.50
2019,03,20,01,10,9.60
2019,03,20,01,11,9.70
2019,03,20,01,12,9.70
2019,03,20,01,13,9.70
2019,03,20,01,14,9.70
2019,03,20,01,15,9.80
2019,03,20,01,16,9.80
2019,03,20,01,17,9.80
2019,03,20,01,18,9.80
2019,03,20,01,19,9.80
2019,03,20,01,20,9.80
2019,03,20,01,21,9.90
2019,03,20,01,22,9.90
2019,03,20,01,23,9.90
2019,03,20,01,24,9.90
2019,03,20,01,25,9.90
2019,03,20,01,26,9.80
2019,03,20,01,27,9.80
2019,03,20,01,28,9.80
2019,03,20,01,29,9.90
2019,03,20,01,30,10.00
2019,03,20,01,31,10.00
2019,03,20,01,32,10.10
2019,03,20,01,33,10.10
2019,03,20,01,34,10.10
2019,03,20,01,35,10.10
2019,03,20,01,36,10.10
2019,03,20,01,37,10.10
2019,03,20,01,38,10.10
2019,03,20,01,39,10.10
2019,03,20,01,40,10.10
2019,03,20,01,41,10.00
2019,03,20,01,42,10.00
2019,03,20,01,43,9.90
2019,03,20,01,44,9.90
2019,03,20,01,45,10.00
2019,03,20,01,46,10.00
2019,03,20,01,47,10.00
2019,03,20,01,48,10.00
2019,03,20,01,49,10.00
2019,03,20,01,50,10.00
2019,03,20,01,51,10.00
2019,03,20,01,52,10.00
2019,03,20,01,53,10.00
2019,03,20,01,54,10.00
2019,03,20,01,55,9.90
2019,03,20,01,56,9.90
2019,03,20,01,57,9.90
2019,03,20,01,58,9.90
2019,03,20,01,59,9.80
2019,03,20,02,00,9.80
2019,03,20,02,01,9.80
2019,03,20,02,02,9.80
2019,03,20,02,03,9.80
2019,03,20,02,04,9.80
2019,03,20,02,05,9.90
2019,03,20,02,06,9.90
2019,03,20,02,07,9.90
2019,03,20,02,08,9.90
2019,03,20,02,09,9.90
2019,03,20,02,10,9.80
2019,03,20,02,11,9.80
2019,03,20,02,12,9.80
2019,03,20,02,13,9.80
2019,03,20,02,14,9.70
2019,03,20,02,15,9.70
2019,03,20,02,16,9.70
2019,03,20,02,17,9.70
2019,03,20,02,18,9.70
2019,03,20,02,19,9.70
2019,03,20,02,20,9.70
2019,03,20,02,21,9.70
2019,03,20,02,22,9.70
2019,03,20,02,23,9.70
2019,03,20,02,24,9.60
2019,03,20,02,25,9.60
2019,03,20,02,26,9.60
2019,03,20,02,27,9.50
2019,03,20,02,28,9.40
2019,03,20,02,29,9.30
2019,03,20,02,30,9.20
2019,03,20,02,31,9.10
2019,03,20,02,32,9.00
2019,03,20,02,33,9.00
2019,03,20,02,34,8.90
2019,03,20,02,35,8.80
2019,03,20,02,36,8.70
2019,03,20,02,37,8.60
2019,03,20,02,38,8.60
2019,03,20,02,39,8.60
2019,03,20,02,40,8.60
2019,03,20,02,41,8.50
2019,03,20,02,42,8.50
2019,03,20,02,43,8.60
2019,03,20,02,44,8.60
2019,03,20,02,45,8.60
2019,03,20,02,46,8.60
2019,03,20,02,47,8.60
2019,03,20,02,48,8.60
2019,03,20,02,49,8.60
2019,03,20,02,50,8.60
2019,03,20,02,51,8.60
2019,03,20,02,52,8.60
2019,03,20,02,53,8.60
2019,03,20,02,54,8.60
2019,03,20,02,55,8.60
2019,03,20,02,56,8.60
2019,03,20,02,57,8.60
2019,03,20,02,58,8.60
2019,03,20,02,59,8.60
2019,03,20,03,00,8.60
2019,03,20,03,01,8.60
2019,03,20,03,02,8.60
2019,03,20,03,03,8.60
2019,03,20,03,04,8.60
2019,03,20,03,05,8.60
2019,03,20,03,06,8.60
2019,03,20,03,07,8.60
2019,03,20,03,08,8.60
2019,03,20,03,09,8.60
2019,03,20,03,10,8.60
2019,03,20,03,11,8.60
2019,03,20,03,12,8.50
2019,03,20,03,13,8.50
2019,03,20,03,14,8.40
2019,03,20,03,15,8.40
2019,03,20,03,16,8.40
2019,03,20,03,17,8.40
2019,03,20,03,18,8.40
2019,03,20,03,19,8.40
2019,03,20,03,20,8.30
2019,03,20,03,21,8.30
2019,03,20,03,22,8.30
2019,03,20,03,23,8.20
2019,03,20,03,24,8.10
2019,03,20,03,25,8.00
2019,03,20,03,26,8.00
2019,03,20,03,27,7.90
2019,03,20,03,28,7.80
2019,03,20,03,29,7.80
2019,03,20,03,30,7.70
2019,03,20,03,31,7.70
2019,03,20,03,32,7.70
2019,03,20,03,33,7.70
2019,03,20,03,34,7.70
2019,03,20,03,35,7.70
2019,03,20,03,36,7.70
2019,03,20,03,37,7.60
2019,03,20,03,38,7.60
2019,03,20,03,39,7.60
2019,03,20,03,40,7.60
2019,03,20,03,41,7.60
2019,03,20,03,42,7.60
2019,03,20,03,43,7.60
2019,03,20,03,44,7.60
2019,03,20,03,45,7.60
2019,03,20,03,46,7.60
2019,03,20,03,47,7.60
2019,03,20,03,48,7.60
2019,03,20,03,49,7.60
2019,03,20,03,50,7.70
2019,03,20,03,51,7.70
2019,03,20,03,52,7.70
2019,03,20,03,53,7.80
2019,03,20,03,54,7.80
2019,03,20,03,55,7.80
2019,03,20,03,56,7.80
2019,03,20,03,57,7.80
2019,03,20,03,58,7.80
2019,03,20,03,59,7.80
2019,03,20,04,00,7.90
2019,03,20,04,01,7.90
2019,03,20,04,02,7.90
2019,03,20,04,03,7.90
2019,03,20,04,04,8.00
2019,03,20,04,05,8.00
2019,03,20,04,06,8.10
2019,03,20,04,07,8.10
2019,03,20,04,08,8.10
2019,03,20,04,09,8.10
2019,03,20,04,10,8.10
2019,03,20,04,11,8.10
2019,03,20,04,12,8.00
2019,03,20,04,13,8.00
2019,03,20,04,14,8.00
2019,03,20,04,15,7.90
2019,03,20,04,16,7.90
2019,03,20,04,17,7.90
2019,03,20,04,18,7.90
2019,03,20,04,19,7.80
2019,03,20,04,20,7.80
2019,03,20,04,21,7.80
2019,03,20,04,22,7.80
2019,03,20,04,23,7.80
2019,03,20,04,24,7.80
2019,03,20,04,25,7.80
2019,03,20,04,26,7.80
2019,03,20,04,27,7.80
2019,03,20,04,28,7.80
2019,03,20,04,29,7.80
2019,03,20,04,30,7.80
2019,03,20,04,31,7.80
2019,03,20,04,32,7.80
2019,03,20,04,33,7.80
2019,03,20,04,34,7.80
2019,03,20,04,35,7.90
2019,03,20,04,36,7.90
2019,03,20,04,37,7.90
2019,03,20,04,38,7.90
2019,03,20,04,39,7.90
2019,03,20,04,40,7.80
2019,03,20,04,41,7.80
2019,03,20,04,42,7.80
2019,03,20,04,43,7.80
2019,03,20,04,44,7.80
2019,03,20,04,45,7.80
2019,03,20,04,46,7.80
2019,03,20,04,47,7.80
2019,03,20,04,48,7.80
2019,03,20,04,49,7.90
2019,03,20,04,50,7.90
2019,03,20,04,51,7.90
2019,03,20,04,52,8.00
2019,03,20,04,53,8.00
2019,03,20,04,54,8.00
2019,03,20,04,55,8.00
2019,03,20,04,56,8.00
2019,03,20,04,57,7.90
2019,03,20,04,58,7.90
2019,03,20,04,59,7.90
2019,03,20,05,00,7.80
2019,03,20,05,01,7.80
2019,03,20,05,02,7.80
2019,03,20,05,03,7.80
2019,03,20,05,04,7.80
2019,03,20,05,05,7.80
2019,03,20,05,06,7.80
2019,03,20,05,07,7.80
2019,03,20,05,08,7.80
2019,03,20,05,09,7.90
2019,03,20,05,10,7.90
2019,03,20,05,11,7.90
2019,03,20,05,12,7.90
2019,03,20,05,13,7.90
2019,03,20,05,14,7.90
2019,03,20,05,15,7.90
2019,03,20,05,16,7.90
2019,03,20,05,17,7.90
2019,03,20,05,18,7.90
2019,03,20,05,19,7.90
2019,03,20,05,20,8.00
2019,03,20,05,21,8.10
2019,03,20,05,22,8.20
2019,03,20,05,23,8.30
2019,03,20,05,24,8.40
2019,03,20,05,25,8.50
2019,03,20,05,26,8.60
2019,03,20,05,27,8.70
2019,03,20,05,28,8.80
2019,03,20,05,29,8.90
2019,03,20,05,30,8.90
2019,03,20,05,31,8.90
2019,03,20,05,32,8.90
2019,03,20,05,33,8.80
2019,03,20,05,34,8.80
2019,03,20,05,35,8.80
2019,03,20,05,36,8.70
2019,03,20,05,37,8.60
2019,03,20,05,38,8.50
2019,03,20,05,39,8.40
2019,03,20,05,40,8.40
2019,03,20,05,41,8.30
2019,03,20,05,42,8.30
2019,03,20,05,43,8.20
2019,03,20,05,44,8.20
2019,03,20,05,45,8.20
2019,03,20,05,46,8.30
2019,03,20,05,47,8.30
2019,03,20,05,48,8.20
2019,03,20,05,49,8.20
2019,03,20,05,50,8.20
2019,03,20,05,51,8.20
2019,03,20,05,52,8.20
2019,03,20,05,53,8.30
2019,03,20,05,54,8.30
2019,03,20,05,55,8.30
2019,03,20,05,56,8.40
2019,03,20,05,57,8.40
2019,03,20,05,58,8.40
2019,03,20,05,59,8.50
2019,03,20,06,00,8.50
2019,03,20,06,01,8.60
2019,03,20,06,02,8.60
2019,03,20,06,03,8.70
2019,03,20,06,04,8.80
2019,03,20,06,05,8.80
2019,03,20,06,06,8.90
2019,03,20,06,07,9.00
2019,03,20,06,08,9.10
2019,03,20,06,09,9.10
2019,03,20,06,10,9.20
2019,03,20,06,11,9.30
2019,03,20,06,12,9.30
2019,03,20,06,13,9.30
2019,03,20,06,14,9.40
2019,03,20,06,15,9.40
2019,03,20,06,16,9.40
2019,03,20,06,17,9.50
2019,03,20,06,18,9.60
2019,03,20,06,19,9.70
2019,03,20,06,20,9.70
2019,03,20,06,21,9.80
2019,03,20,06,22,9.80
2019,03,20,06,23,9.80
2019,03,20,06,24,9.80
2019,03,20,06,25,9.80
2019,03,20,06,26,9.70
2019,03,20,06,27,9.60
2019,03,20,06,28,9.50
2019,03,20,06,29,9.40
2019,03,20,06,30,9.30
2019,03,20,06,31,9.20
2019,03,20,06,32,9.10
2019,03,20,06,33,9.00
2019,03,20,06,34,8.90
2019,03,20,06,35,8.80
2019,03,20,06,36,8.80
2019,03,20,06,37,8.70
2019,03,20,06,38,8.70
2019,03,20,06,39,8.60
2019,03,20,06,40,8.60
2019,03,20,06,41,8.50
2019,03,20,06,42,8.50
2019,03,20,06,43,8.40
2019,03,20,06,44,8.40
2019,03,20,06,45,8.40
2019,03,20,06,46,8.30
2019,03,20,06,47,8.30
2019,03,20,06,48,8.30
2019,03,20,06,49,8.20
2019,03,20,06,50,8.20
2019,03,20,06,51,8.20
2019,03,20,06,52,8.10
2019,03,20,06,53,8.10
2019,03,20,06,54,8.10
2019,03,20,06,55,8.10
2019,03,20,06,56,8.10
2019,03,20,06,57,8.10
2019,03,20,06,58,8.10
2019,03,20,06,59,8.10
2019,03,20,07,00,8.10
2019,03,20,07,01,8.00
2019,03,20,07,02,8.00
2019,03,20,07,03,8.00
2019,03,20,07,04,8.00
2019,03,20,07,05,8.00
2019,03,20,07,06,8.00
2019,03,20,07,07,8.10
2019,03,20,07,08,8.10
2019,03,20,07,09,8.10
2019,03,20,07,10,8.10
2019,03,20,07,11,8.20
2019,03,20,07,12,8.30
2019,03,20,07,13,8.40
2019,03,20,07,14,8.50
2019,03,20,07,15,8.60
2019,03,20,07,16,8.80
2019,03,20,07,17,9.00
2019,03,20,07,18,9.10
2019,03,20,07,19,9.20
2019,03,20,07,20,9.30
2019,03,20,07,21,9.50
2019,03,20,07,22,9.60
2019,03,20,07,23,9.70
2019,03,20,07,24,9.80
2019,03,20,07,25,9.90
2019,03,20,07,26,10.00
2019,03,20,07,27,10.10
2019,03,20,07,28,10.10
2019,03,20,07,29,10.20
2019,03,20,07,30,10.30
2019,03,20,07,31,10.30
2019,03,20,07,32,10.40
2019,03,20,07,33,10.40
2019,03,20,07,34,10.50
2019,03,20,07,35,10.50
2019,03,20,07,36,10.60
2019,03,20,07,37,10.60
2019,03,20,07,38,10.70
2019,03,20,07,39,10.70
2019,03,20,07,40,10.80
2019,03,20,07,41,10.90
2019,03,20,07,42,10.90
2019,03,20,07,43,11.00
2019,03,20,07,44,11.00
2019,03,20,07,45,11.10
2019,03,20,07,46,11.10
2019,03,20,07,47,11.20
2019,03,20,07,48,11.20
2019,03,20,07,49,11.20
2019,03,20,07,50,11.20
2019,03,20,07,51,11.10
2019,03,20,07,52,11.00
2019,03,20,07,53,10.80
2019,03,20,07,54,10.60
2019,03,20,07,55,10.40
2019,03,20,07,56,10.30
2019,03,20,07,57,10.10
2019,03,20,07,58,10.00
2019,03,20,07,59,9.90
2019,03,20,08,00,9.80
2019,03,20,08,01,9.70
2019,03,20,08,02,9.60
2019,03,20,08,03,9.60
2019,03,20,08,04,9.50
2019,03,20,08,05,9.50
2019,03,20,08,06,9.40
2019,03,20,08,07,9.40
2019,03,20,08,08,9.40
2019,03,20,08,09,9.40
2019,03,20,08,10,9.40
2019,03,20,08,11,9.40
2019,03,20,08,12,9.40
2019,03,20,08,13,9.40
2019,03,20,08,14,9.40
2019,03,20,08,15,9.50
2019,03,20,08,16,9.50
2019,03,20,08,17,9.60
2019,03,20,08,18,9.60
2019,03,20,08,19,9.60
2019,03,20,08,20,9.60
2019,03,20,08,21,9.70
2019,03,20,08,22,9.70
2019,03,20,08,23,9.80
2019,03,20,08,24,9.90
2019,03,20,08,25,10.00
2019,03,20,08,26,10.10
2019,03,20,08,27,10.20
2019,03,20,08,28,10.20
2019,03,20,08,29,10.20
2019,03,20,08,30,10.20
2019,03,20,08,31,10.10
2019,03,20,08,32,10.00
2019,03,20,08,33,9.90
2019,03,20,08,34,9.80
2019,03,20,08,35,9.80
2019,03,20,08,36,9.80
2019,03,20,08,37,9.80
2019,03,20,08,38,9.80
2019,03,20,08,39,9.80
2019,03,20,08,40,9.80
2019,03,20,08,41,9.80
2019,03,20,08,42,9.90
2019,03,20,08,43,9.90
2019,03,20,08,44,9.90
2019,03,20,08,45,10.00
2019,03,20,08,46,10.10
2019,03,20,08,47,10.20
2019,03,20,08,48,10.20
2019,03,20,08,49,10.30
2019,03,20,08,50,10.30
2019,03,20,08,51,10.40
2019,03,20,08,52,10.40
2019,03,20,08,53,10.40
2019,03,20,08,54,10.40
2019,03,20,08,55,10.50
2019,03,20,08,56,10.60
2019,03,20,08,57,10.70
2019,03,20,08,58,10.80
2019,03,20,08,59,10.80
2019,03,20,09,00,10.80
2019,03,20,09,01,10.80
2019,03,20,09,02,10.90
2019,03,20,09,03,10.90
2019,03,20,09,04,10.80
2019,03,20,09,05,10.80
2019,03,20,09,06,10.80
2019,03,20,09,07,10.80
2019,03,20,09,08,10.80
2019,03,20,09,09,10.80
2019,03,20,09,10,10.90
2019,03,20,09,11,10.90
2019,03,20,09,12,11.00
2019,03,20,09,13,11.10
2019,03,20,09,14,11.20
2019,03,20,09,15,11.30
2019,03,20,09,16,11.30
2019,03,20,09,17,11.40
2019,03,20,09,18,11.50
2019,03,20,09,19,11.50
2019,03,20,09,20,11.60
2019,03,20,09,21,11.70
2019,03,20,09,22,11.80
2019,03,20,09,23,11.90
2019,03,20,09,24,12.00
2019,03,20,09,25,12.10
2019,03,20,09,26,12.20
2019,03,20,09,27,12.30
2019,03,20,09,28,12.50
2019,03,20,09,29,12.60
2019,03,20,09,30,12.60
2019,03,20,09,31,12.70
2019,03,20,09,32,12.80
2019,03,20,09,33,12.80
2019,03,20,09,34,12.90
2019,03,20,09,35,12.90
2019,03,20,09,36,12.90
2019,03,20,09,37,13.00
2019,03,20,09,38,13.00
2019,03,20,09,39,13.00
2019,03,20,09,40,13.00
2019,03,20,09,41,12.90
2019,03,20,09,42,12.90
2019,03,20,09,43,12.90
2019,03,20,09,44,13.00
2019,03,20,09,45,13.00
2019,03,20,09,46,13.10
2019,03,20,09,47,13.10
2019,03,20,09,48,13.20
2019,03,20,09,49,13.20
2019,03,20,09,50,13.30
2019,03,20,09,51,13.30
2019,03,20,09,52,13.40
2019,03,20,09,53,13.40
2019,03,20,09,54,13.50
2019,03,20,09,55,13.50
2019,03,20,09,56,13.50
2019,03,20,09,57,13.50
2019,03,20,09,58,13.40
2019,03,20,09,59,13.40
2019,03,20,10,00,13.40
2019,03,20,10,01,13.50
2019,03,20,10,02,13.50
2019,03,20,10,03,13.60
2019,03,20,10,04,13.60
2019,03,20,10,05,13.60
2019,03,20,10,06,13.70
2019,03,20,10,07,13.70
2019,03,20,10,08,13.70
2019,03,20,10,09,13.70
2019,03,20,10,10,13.70
2019,03,20,10,11,13.70
2019,03,20,10,12,13.70
2019,03,20,10,13,13.70
2019,03,20,10,14,13.70
2019,03,20,10,15,13.70
2019,03,20,10,16,13.70
2019,03,20,10,17,13.70
2019,03,20,10,18,13.70
2019,03,20,10,19,13.80
2019,03,20,10,20,13.80
2019,03,20,10,21,13.80
2019,03,20,10,22,13.90
2019,03,20,10,23,13.90
2019,03,20,10,24,13.90
2019,03,20,10,25,14.00
2019,03,20,10,26,14.00
2019,03,20,10,27,14.10
2019,03,20,10,28,14.10
2019,03,20,10,29,14.10
2019,03,20,10,30,14.10
2019,03,20,10,31,14.10
2019,03,20,10,32,14.10
2019,03,20,10,33,14.10
2019,03,20,10,34,14.20
2019,03,20,10,35,14.20
2019,03,20,10,36,14.10
2019,03,20,10,37,14.10
2019,03,20,10,38,14.00
2019,03,20,10,39,13.90
2019,03,20,10,40,13.90
2019,03,20,10,41,13.90
2019,03,20,10,42,13.90
2019,03,20,10,43,14.00
2019,03,20,10,44,14.10
2019,03,20,10,45,14.00
2019,03,20,10,46,14.00
2019,03,20,10,47,14.10
2019,03,20,10,48,14.10
2019,03,20,10,49,14.10
2019,03,20,10,50,14.00
2019,03,20,10,51,14.00
2019,03,20,10,52,13.90
2019,03,20,10,53,13.90
2019,03,20,10,54,13.90
2019,03,20,10,55,13.90
2019,03,20,10,56,13.90
2019,03,20,10,57,14.00
2019,03,20,10,58,14.10
2019,03,20,10,59,14.20
2019,03,20,11,00,14.20
2019,03,20,11,01,14.20
2019,03,20,11,02,14.20
2019,03,20,11,03,14.20
2019,03,20,11,04,14.20
2019,03,20,11,05,14.20
2019,03,20,11,06,14.10
2019,03,20,11,07,14.00
2019,03,20,11,08,13.90
2019,03,20,11,09,13.90
2019,03,20,11,10,14.00
2019,03,20,11,11,14.00
2019,03,20,11,12,14.10
2019,03,20,11,13,14.20
2019,03,20,11,14,14.20
2019,03,20,11,15,14.30
2019,03,20,11,16,14.30
2019,03,20,11,17,14.30
2019,03,20,11,18,14.30
2019,03,20,11,19,14.30
2019,03,20,11,20,14.30
2019,03,20,11,21,14.20
2019,03,20,11,22,14.20
2019,03,20,11,23,14.10
2019,03,20,11,24,13.90
2019,03,20,11,25,13.80
2019,03,20,11,26,13.60
2019,03,20,11,27,13.60
2019,03,20,11,28,13.60
2019,03,20,11,29,13.70
2019,03,20,11,30,13.70
2019,03,20,11,31,13.70
2019,03,20,11,32,13.80
2019,03,20,11,33,13.80
2019,03,20,11,34,14.00
2019,03,20,11,35,14.10
2019,03,20,11,36,14.00
2019,03,20,11,37,13.90
2019,03,20,11,38,13.80
2019,03,20,11,39,13.80
2019,03,20,11,40,13.80
2019,03,20,11,41,13.80
2019,03,20,11,42,13.90
2019,03,20,11,43,13.90
2019,03,20,11,44,13.90
2019,03,20,11,45,14.00
2019,03,20,11,46,14.00
2019,03,20,11,47,14.00
2019,03,20,11,48,14.10
2019,03,20,11,49,14.20
2019,03,20,11,50,14.30
2019,03,20,11,51,14.30
2019,03,20,11,52,14.30
2019,03,20,11,53,14.40
2019,03,20,11,54,14.50
2019,03,20,11,55,14.60
2019,03,20,11,56,14.60
2019,03,20,11,57,14.60
2019,03,20,11,58,14.60
2019,03,20,11,59,14.60
2019,03,20,12,00,14.70
2019,03,20,12,01,14.70
2019,03,20,12,02,14.80
2019,03,20,12,03,14.80
2019,03,20,12,04,14.80
2019,03,20,12,05,14.70
2019,03,20,12,06,14.80
2019,03,20,12,07,14.80
2019,03,20,12,08,14.90
2019,03,20,12,09,14.90
2019,03,20,12,10,15.00
2019,03,20,12,11,15.00
2019,03,20,12,12,15.00
2019,03,20,12,13,15.10
2019,03,20,12,14,15.10
2019,03,20,12,15,15.10
2019,03,20,12,16,15.10
2019,03,20,12,17,15.10
2019,03,20,12,18,15.10
2019,03,20,12,19,15.20
2019,03,20,12,20,15.20
2019,03,20,12,21,15.20
2019,03,20,12,22,15.20
2019,03,20,12,23,15.20
2019,03,20,12,24,15.30
2019,03,20,12,25,15.30
2019,03,20,12,26,15.30
2019,03,20,12,27,15.30
2019,03,20,12,28,15.40
2019,03,20,12,29,15.50
2019,03,20,12,30,15.60
2019,03,20,12,31,15.60
2019,03,20,12,32,15.60
2019,03,20,12,33,15.60
2019,03,20,12,34,15.70
2019,03,20,12,35,15.70
2019,03,20,12,36,15.80
2019,03,20,12,37,15.90
2019,03,20,12,38,15.90
2019,03,20,12,39,16.00
2019,03,20,12,40,15.90
2019,03,20,12,41,16.00
2019,03,20,12,42,16.10
2019,03,20,12,43,16.10
2019,03,20,12,44,16.20
2019,03,20,12,45,16.20
2019,03,20,12,46,16.30
2019,03,20,12,47,16.30
2019,03,20,12,48,16.30
2019,03,20,12,49,16.20
2019,03,20,12,50,16.20
2019,03,20,12,51,16.30
2019,03,20,12,52,16.30
2019,03,20,12,53,16.30
2019,03,20,12,54,16.30
2019,03,20,12,55,16.30
2019,03,20,12,56,16.30
2019,03,20,12,57,16.30
2019,03,20,12,58,16.30
2019,03,20,12,59,16.40
2019,03,20,13,00,16.40
2019,03,20,13,01,16.40
2019,03,20,13,02,16.50
2019,03,20,13,03,16.50
2019,03,20,13,04,16.50
2019,03,20,13,05,16.40
2019,03,20,13,06,16.50
2019,03,20,13,07,16.60
2019,03,20,13,08,16.70
2019,03,20,13,09,16.70
2019,03,20,13,10,16.80
2019,03,20,13,11,16.80
2019,03,20,13,12,16.80
2019,03,20,13,13,16.80
2019,03,20,13,14,16.70
2019,03,20,13,15,16.80
2019,03,20,13,16,16.80
2019,03,20,13,17,16.80
2019,03,20,13,18,16.90
2019,03,20,13,19,16.90
2019,03,20,13,20,16.90
2019,03,20,13,21,17.00
2019,03,20,13,22,17.00
2019,03,20,13,23,17.10
2019,03,20,13,24,17.10
2019,03,20,13,25,17.00
2019,03,20,13,26,17.00
2019,03,20,13,27,17.00
2019,03,20,13,28,17.00
2019,03,20,13,29,17.00
2019,03,20,13,30,17.10
2019,03,20,13,31,17.20
2019,03,20,13,32,17.10
2019,03,20,13,33,17.10
2019,03,20,13,34,17.10
2019,03,20,13,35,17.10
2019,03,20,13,36,17.20
2019,03,20,13,37,17.20
2019,03,20,13,38,17.20
2019,03,20,13,39,17.30
2019,03,20,13,40,17.40
2019,03,20,13,41,17.50
2019,03,20,13,42,17.60
2019,03,20,13,43,17.60
2019,03,20,13,44,17.60
2019,03,20,13,45,17.60
2019,03,20,13,46,17.60
2019,03,20,13,47,17.60
2019,03,20,13,48,17.60
2019,03,20,13,49,17.60
2019,03,20,13,50,17.70
2019,03,20,13,51,17.70
2019,03,20,13,52,17.70
2019,03,20,13,53,17.70
2019,03,20,13,54,17.70
2019,03,20,13,55,17.70
2019,03,20,13,56,17.70
2019,03,20,13,57,17.70
2019,03,20,13,58,17.70
2019,03,20,13,59,17.80
2019,03,20,14,00,17.80
2019,03,20,14,01,17.90
2019,03,20,14,02,17.90
2019,03,20,14,03,18.00
2019,03,20,14,04,18.00
2019,03,20,14,05,18.00
2019,03,20,14,06,18.00
2019,03,20,14,07,17.90
2019,03,20,14,08,17.90
2019,03,20,14,09,17.90
2019,03,20,14,10,17.90
2019,03,20,14,11,18.00
2019,03,20,14,12,18.00
2019,03,20,14,13,18.10
2019,03,20,14,14,18.10
2019,03,20,14,15,18.20
2019,03,20,14,16,18.20
2019,03,20,14,17,18.20
2019,03,20,14,18,18.20
2019,03,20,14,19,18.30
2019,03,20,14,20,18.30
2019,03,20,14,21,18.30
2019,03,20,14,22,18.30
2019,03,20,14,23,18.30
2019,03,20,14,24,18.30
2019,03,20,14,25,18.30
2019,03,20,14,26,18.30
2019,03,20,14,27,18.40
2019,03,20,14,28,18.50
2019,03,20,14,29,18.50
2019,03,20,14,30,18.60
2019,03,20,14,31,18.60
2019,03,20,14,32,18.50
2019,03,20,14,33,18.50
2019,03,20,14,34,18.50
2019,03,20,14,35,18.40
2019,03,20,14,36,18.40
2019,03,20,14,37,18.40
2019,03,20,14,38,18.40
2019,03,20,14,39,18.40
2019,03,20,14,40,18.30
2019,03,20,14,41,18.30
2019,03,20,14,42,18.40
2019,03,20,14,43,18.40
2019,03,20,14,44,18.50
2019,03,20,14,45,18.50
2019,03,20,14,46,18.50
2019,03,20,14,47,18.50
2019,03,20,14,48,18.50
2019,03,20,14,49,18.50
2019,03,20,14,50,18.60
2019,03,20,14,51,18.60
2019,03,20,14,52,18.60
2019,03,20,14,53,18.60
2019,03,20,14,54,18.70
2019,03,20,14,55,18.70
2019,03,20,14,56,18.80
2019,03,20,14,57,18.70
2019,03,20,14,58,18.70
2019,03,20,14,59,18.70
2019,03,20,15,00,18.80
2019,03,20,15,01,18.80
2019,03,20,15,02,18.80
2019,03,20,15,03,18.80
2019,03,20,15,04,18.70
2019,03,20,15,05,18.70
2019,03,20,15,06,18.70
2019,03,20,15,07,18.70
2019,03,20,15,08,18.70
2019,03,20,15,09,18.70
2019,03,20,15,10,18.70
2019,03,20,15,11,18.80
2019,03,20,15,12,18.80
2019,03,20,15,13,18.90
2019,03,20,15,14,18.90
2019,03,20,15,15,18.90
2019,03,20,15,16,19.00
2019,03,20,15,17,19.00
2019,03,20,15,18,19.00
2019,03,20,15,19,19.00
2019,03,20,15,20,19.00
2019,03,20,15,21,19.00
2019,03,20,15,22,19.00
2019,03,20,15,23,19.00
2019,03,20,15,24,19.00
2019,03,20,15,25,19.00
2019,03,20,15,26,19.00
2019,03,20,15,27,19.10
2019,03,20,15,28,19.10
2019,03,20,15,29,19.10
2019,03,20,15,30,19.10
2019,03,20,15,31,19.10
2019,03,20,15,32,19.20
2019,03,20,15,33,19.20
2019,03,20,15,34,19.20
2019,03,20,15,35,19.10
2019,03,20,15,36,19.00
2019,03,20,15,37,18.90
2019,03,20,15,38,18.80
2019,03,20,15,39,18.80
2019,03,20,15,40,18.80
2019,03,20,15,41,18.80
2019,03,20,15,42,18.80
2019,03,20,15,43,18.80
2019,03,20,15,44,18.90
2019,03,20,15,45,18.90
2019,03,20,15,46,19.00
2019,03,20,15,47,19.10
2019,03,20,15,48,19.10
2019,03,20,15,49,19.10
2019,03,20,15,50,19.00
2019,03,20,15,51,18.90
2019,03,20,15,52,18.90
2019,03,20,15,53,18.90
2019,03,20,15,54,18.80
2019,03,20,15,55,18.70
2019,03,20,15,56,18.70
2019,03,20,15,57,18.70
2019,03,20,15,58,18.70
2019,03,20,15,59,18.80
2019,03,20,16,00,18.90
2019,03,20,16,01,18.90
2019,03,20,16,02,19.00
2019,03,20,16,03,19.00
2019,03,20,16,04,19.00
2019,03,20,16,05,19.00
2019,03,20,16,06,19.00
2019,03,20,16,07,19.00
2019,03,20,16,08,19.00
2019,03,20,16,09,19.10
2019,03,20,16,10,19.00
2019,03,20,16,11,18.90
2019,03,20,16,12,18.90
2019,03,20,16,13,18.90
2019,03,20,16,14,18.80
2019,03,20,16,15,18.80
2019,03,20,16,16,18.70
2019,03,20,16,17,18.70
2019,03,20,16,18,18.70
2019,03,20,16,19,18.80
2019,03,20,16,20,18.80
2019,03,20,16,21,18.80
2019,03,20,16,22,18.90
2019,03,20,16,23,19.00
2019,03,20,16,24,19.00
2019,03,20,16,25,19.10
2019,03,20,16,26,19.10
2019,03,20,16,27,19.20
2019,03,20,16,28,19.20
2019,03,20,16,29,19.20
2019,03,20,16,30,19.20
2019,03,20,16,31,19.10
2019,03,20,16,32,19.10
2019,03,20,16,33,19.00
2019,03,20,16,34,18.90
2019,03,20,16,35,18.80
2019,03,20,16,36,18.70
2019,03,20,16,37,18.60
2019,03,20,16,38,18.50
2019,03,20,16,39,18.50
2019,03,20,16,40,18.40
2019,03,20,16,41,18.40
2019,03,20,16,42,18.30
2019,03,20,16,43,18.30
2019,03,20,16,44,18.20
2019,03,20,16,45,18.20
2019,03,20,16,46,18.20
2019,03,20,16,47,18.30
2019,03,20,16,48,18.20
2019,03,20,16,49,18.20
2019,03,20,16,50,18.20
2019,03,20,16,51,18.10
2019,03,20,16,52,18.10
2019,03,20,16,53,18.00
2019,03,20,16,54,17.90
2019,03,20,16,55,17.90
2019,03,20,16,56,17.90
2019,03,20,16,57,18.00
2019,03,20,16,58,18.00
2019,03,20,16,59,17.90
2019,03,20,17,00,17.90
2019,03,20,17,01,17.90
2019,03,20,17,02,17.90
2019,03,20,17,03,17.90
2019,03,20,17,04,17.80
2019,03,20,17,05,17.80
2019,03,20,17,06,17.70
2019,03,20,17,07,17.70
2019,03,20,17,08,17.70
2019,03,20,17,09,17.70
2019,03,20,17,10,17.60
2019,03,20,17,11,17.60
2019,03,20,17,12,17.50
2019,03,20,17,13,17.50
2019,03,20,17,14,17.50
2019,03,20,17,15,17.60
2019,03,20,17,16,17.50
2019,03,20,17,17,17.50
2019,03,20,17,18,17.40
2019,03,20,17,19,17.40
2019,03,20,17,20,17.40
2019,03,20,17,21,17.40
2019,03,20,17,22,17.40
2019,03,20,17,23,17.40
2019,03,20,17,24,17.40
2019,03,20,17,25,17.30
2019,03,20,17,26,17.30
2019,03,20,17,27,17.30
2019,03,20,17,28,17.30
2019,03,20,17,29,17.20
2019,03,20,17,30,17.20
2019,03,20,17,31,17.20
2019,03,20,17,32,17.20
2019,03,20,17,33,17.20
2019,03,20,17,34,17.10
2019,03,20,17,35,17.20
2019,03,20,17,36,17.20
2019,03,20,17,37,17.20
2019,03,20,17,38,17.20
2019,03,20,17,39,17.20